Regional Weather Roundup
Issued by NWS

Home | Current Version | Previous Version | Graphics & Text | Print | Product List | Glossary On
Versions: 1 2 3 4 5 6 7 8 9 10 11 12 13 14 15 16 17 18 19 20 21 22 23 24 25 26 27 28 29 30 31 32 33 34 35 36 37 38 39 40 41 42 43 44 45 46 47 48 49 50
000
ASUS43 KLOT 222103
RWRIL

ILLINOIS REGIONAL WEATHER ROUNDUP
NATIONAL WEATHER SERVICE CHICAGO/ROMEOVILLE IL
400 PM CDT SAT APR 22 2017

NOTE: "FAIR" INDICATES FEW OR NO CLOUDS BELOW 12,000 FEET WITH NO
SIGNIFICANT WEATHER AND/OR OBSTRUCTIONS TO VISIBILITY.

* THESE STATIONS ARE NOT UNDER NWS QUALITY CONTROL. THEY ALSO MAY NOT
  REPORT WEATHER SUCH AS PRECIPITATION OR FOG.

ILZ001-002-007-009-015-016-024-222200-
NORTHWEST ILLINOIS

CITY           SKY/WX    TMP DP  RH WIND       PRES   REMARKS
MOLINE         SUNNY     65  35  33 NE8       30.15F
STERLING*      SUNNY     63  33  32 VRB7      30.16F
SAVANNA*       SUNNY     64  31  29 N12       30.16F
$$

ILZ003-004-008-010-011-017-018-222200-
NORTH CENTRAL ILLINOIS

CITY           SKY/WX    TMP DP  RH WIND       PRES   REMARKS
ROCKFORD       MOSUNNY   64  29  26 NE7       30.17F
FREEPORT*      SUNNY     62  31  32 N8        30.18F
ROCHELLE*      SUNNY     62  30  30 N13       30.15F
DE KALB*       SUNNY     61  28  28 NE9G17    30.16F
PERU*          SUNNY     60  25  26 NE12G18   30.15S
$$

ILZ005-006-012>014-019>023-222200-
NORTHEAST ILLINOIS

CITY           SKY/WX    TMP DP  RH WIND       PRES   REMARKS
CHICAGO-OHARE  MOSUNNY   59  22  24 NE14      30.16F
CHICAGO-MIDWAY PTSUNNY   58  24  27 NE15G23   30.15F
AURORA         SUNNY     61  26  26 NE16      30.15F
LANSING*       CLOUDY    54  35  47 N13       30.15F
JOLIET*        CLOUDY    60  25  26 NE14      30.15S
WAUKEGAN       SUNNY     56  27  32 VRB7      30.17F
DUPAGE AIRPORT SUNNY     60  26  27 NE13      30.15F
KANKAKEE*      MOSUNNY   60  31  33 NE15      30.12F
WHEELING       SUNNY     57  26  30 NE10      30.18F
MORRIS*        SUNNY     61  24  24 NE5       30.13F
NORTHERLY ISL    N/A     50  31  48 N13         N/A
$$

LMZ740>746-222200-
SOUTHERN LAKE MICHIGAN

STATION/POSITION SKY/WX   TEMP    WIND        PRES    VSBY  WAVE
                          AIR SEA DIR/SP/G                  HT/PER
                          (F)     (DEG/KT/KT) (MB)    (MI)  (FT/S)
HARRISON CRIB              45     350/ 15/ 16   N/A
BURNHAM HARBOR             49      10/ 12/ 14   N/A
CALUMET HARBOR             47     340/ 13/ 16 1020.8F
BURNS HARBOR               45      40/  8/  9 1021.7F
MICHIGAN CITY              43      10/  7/  8   N/A
ST. JOSEPH                 45 49   40/ 12/ 16 1021.8F         2/ 4
$$

ILZ025>027-034>036-040-047-049-050-058-095>099-222200-
WEST-CENTRAL ILLINOIS

CITY           SKY/WX    TMP DP  RH WIND       PRES   REMARKS
QUINCY         MOSUNNY   62  33  33 NE13      30.09F
GALESBURG*     SUNNY     63  35  34 NE16G24   30.12F
MACOMB*        SUNNY     64  34  33 NE16      30.13F
JACKSONVILLE*  MOSUNNY   62  35  36 NE24      30.08F
PITTSFIELD*    SUNNY     63  37  38 NE9G23    30.09F
$$

ILZ028>032-037-038-041>044-048-051>054-059>061-222200-
CENTRAL ILLINOIS

CITY           SKY/WX    TMP DP  RH WIND       PRES   REMARKS
PONTIAC        SUNNY     64  24  22 NE18G25   30.12F
BLOOMINGTON    SUNNY     61  32  33 NE18G28   30.10F
DECATUR        SUNNY     62  35  36 E24G36    30.06F
PEORIA         SUNNY     64  31  28 NE14G23   30.10F
LACON*         SUNNY     63  31  30 NE9       30.11F
LINCOLN*       MOSUNNY   64  37  37 NE16G23   30.08F
SPRINGFIELD    MOSUNNY   63  34  33 NE16G26   30.07F
TAYLORVILLE    SUNNY     61  35  37 NE18G29   30.05F
$$

ILZ033-039-045-046-055>057-062-063-222200-
EAST-CENTRAL ILLINOIS

CITY           SKY/WX    TMP DP  RH WIND       PRES   REMARKS
CHAMPAIGN      SUNNY     61  30  31 NE23G31   30.07F
RANTOUL*       MOSUNNY   65  34  30 E18G26    30.07F
MATTOON        CLOUDY    57  37  47 NE21      30.05F
PARIS*         MOSUNNY   58  37  44 NE15G26   30.08F
$$

ILZ079-100>102-222200-
SOUTHWEST ILLINOIS

CITY           SKY/WX    TMP DP  RH WIND       PRES   REMARKS
ALTON          PTSUNNY   57  37  47 NE12G17   30.05F
CAHOKIA*       CLOUDY    59  40  49 NE18      30.04F
SPARTA*        LGT RAIN  50  46  85 NE12      30.03F
$$

ILZ064>066-069>071-074>076-080>082-084>086-088>090-092>094-222200-
SOUTH-CENTRAL ILLINOIS

CITY           SKY/WX    TMP DP  RH WIND       PRES   REMARKS
CARBONDALE     LGT RAIN  52  46  80 N14G21    29.99F
CAIRO*         CLOUDY    54  50  87 N9        29.94F
EFFINGHAM*     CLOUDY    57  38  49 N8G21     30.05F
MARION         LGT RAIN  52  50  93 NE9       29.99F
MT. VERNON     LGT RAIN  53  43  68 NE10G21   30.01F
CENTRALIA*     CLOUDY    54  43  65 NE7       30.01F
SALEM*         CLOUDY    55  40  55 NE10G18   30.02F
METROPOLIS*    CLOUDY    57  49  75 NE8       29.95S
$$

ILZ067-068-072-073-078-083-087-091-222200-
SOUTHEAST ILLINOIS

CITY           SKY/WX    TMP DP  RH WIND       PRES   REMARKS
LAWRENCEVILLE  CLOUDY    57  41  55 NE16G28   30.02F
FLORA*         MOSUNNY   56  42  59 NE13      30.02F
FAIRFIELD*     LGT RAIN  53  46  77 N8        30.00S
HARRISBURG*    CLOUDY    54  47  77 NE14      29.99S
ROBINSON*      CLOUDY    56  41  56 NE13G18   30.04S
CARMI*         CLOUDY    56  48  75 NE13      29.98F
$$

ABBREVIATIONS USED IN REMARKS
   TC - TEMPERATURE IN CELSIUS
  WCI - WIND CHILL INDEX
   HX - HEAT INDEX
  VSB - VISIBILITY
$$





USA.gov is the U.S. government's official web portal to all federal, state and local government web resources and services.